Regional Weather Roundup
Issued by NWS Jackson, KY

Home | Current Version | Previous Version | Graphics & Text | Print | Product List | Glossary On
Versions: 1 2 3 4 5 6 7 8 9 10 11 12 13 14 15 16 17 18 19 20 21 22 23 24 25 26 27 28 29 30 31 32 33 34 35 36 37 38 39 40 41 42 43 44 45 46 47 48 49 50
000
ASUS43 KJKL 271910
RWRJKL

EAST KENTUCKY HOURLY WEATHER ROUNDUP
NATIONAL WEATHER SERVICE JACKSON KY
300 PM EDT FRI MAY 27 2016

NOTE: "FAIR" INDICATES FEW OR NO CLOUDS BELOW 12,000 FEET WITH
NO SIGNIFICANT WEATHER AND/OR OBSTRUCTIONS TO VISIBILITY.

* THESE REPORTS ARE NOT UNDER NWS QUALITY CONTROL AND MAY NOT
  REPORT WEATHER SUCH AS PRECIPITATION AND FOG.

KYZ079-080-083-085-087-088-110-112-115-119-120-272000
...EASTERN KENTUCKY...

CITY           SKY/WX    TMP DP  RH WIND       PRES   REMARKS
JACKSON        MOSUNNY   85  65  51 CALM      30.08F
LONDON         CLOUDY    83  62  49 VRB5      30.07F
SOMERSET*      PTSUNNY   82  64  54 SE5       30.06F
MONTICELLO*    MOSUNNY   86  68  54 SW8G16    30.06F
WILLIAMSBURG*  CLOUDY    82  66  57 SE10      30.07F
MIDDLESBORO*   SUNNY     85  64  49 SW5       30.08F
HARLAN APT*      N/A     82  61  47 SW7       30.09F
HAZARD APT*    CLEAR     86  66  51 W6        30.08F
BLACK MTN*       N/A     75  61  60 NW2         N/A
PIKE CO APT*   PTSUNNY   81  65  57 S8        30.10S
BIG SANDY APT* PTCLDY    85  65  50 CALM      30.08F
MOREHEAD APT*  CLEAR     86  64  48 VRB6G13   30.07F
ASHLAND*       MOSUNNY   88  70  55 NW3       30.01F HX  92
$$

KYZ035-036-041-042-044-050-067-078-099-272000
...CENTRAL KENTUCKY...

CITY           SKY/WX    TMP DP  RH WIND       PRES   REMARKS
MT STERLING*   MOSUNNY   84  64  51 W8        30.06F
FLEMING/MASON* MOSUNNY  N/A N/A N/A SW10      30.05F
DANVILLE*      CLOUDY    82  64  54 S8        30.06F
RICHMOND*      CLOUDY    82  64  54 SW7       30.05F
LEXINGTON      MOSUNNY   84  64  50 S14       30.04F
FRANKFORT      MOSUNNY   85  65  51 SW10      30.01F
LOUISVILLE     CLOUDY    87  63  44 S15G22    29.98F
LEBANON*         N/A     84  66  54 S9        30.03F
GLASGOW*       CLOUDY    84  65  53 S9        30.01F
BOWLING GREEN  PTSUNNY   84  66  54 S13       29.99F
$$

KYZ091>093-OHZ055-061-077-WVZ005-015-034-035-042-272000
...SOUTHERN OHIO/WEST VIRGINIA...

CITY           SKY/WX    TMP DP  RH WIND       PRES   REMARKS
COVINGTON      MOSUNNY   84  65  52 SW10G17   30.02F
COLUMBUS       MOSUNNY   85  63  47 S6        30.02F
DAYTON         MOSUNNY   84  61  45 SW10      30.02F
WILMINGTON     MOSUNNY   84  64  50 SW9       30.03F
HUNTINGTON     PTSUNNY   84  66  54 SW5       30.05F
CHARLESTON       N/A     86  63  45 W6        30.06F
PINEVILLE*       N/A     89  56  33 MISG      30.14F
BECKLEY          N/A     85  58  39 NW6       30.14F
BLUEFIELD      CLOUDY    74  60  61 CALM      30.18F
LOGAN CO APT*    N/A     84  64  51 CALM      30.09F
$$

VAZ002-007-008-TNZ017-027-036-066-071-272000
...SOUTHWEST VIRGINIA/EAST TENNESSEE...

CITY           SKY/WX    TMP DP  RH WIND       PRES   REMARKS
WISE*            N/A     81  54  39 CALM      30.16F
JONESVILLE*      N/A     82  64  54 CALM      30.10F
ABINGDON*      PTSUNNY   83  59  43 CALM      30.12F
BRISTOL        MOSUNNY   85  60  42 W5        30.09F
SEVIERVILLE*     N/A     79  66  65 S8        30.08R
KNOXVILLE      TSTM      70  64  81 NE10      30.08R
OAK RIDGE      MOSUNNY   85  62  46 VRB6      30.08S
CROSSVILLE     CLOUDY    79  61  53 SE7       30.10F
NASHVILLE      PTSUNNY   89  60  37 SW14      30.00F
$$

...KEY TO REMARKS...
VSB - VISIBILITY IN MILES
WCI - WIND CHILL INDEX
HX  - HEAT INDEX

$$



USA.gov is the U.S. government's official web portal to all federal, state and local government web resources and services.